Flight Track Log - Related Links

Times and Time Zones

All times are in EDT time to prevent confusion due to time zone crossing. See the FLG4100 flight status page for this flight to view local times or setup timezone preferences in your user account.

Time Position Orientation Groundspeed Altitude Reporting Facility
EDT Latitude Longitude Course Direction KTS MPH feet Rate Location/Type
Thu 06:34:36 AM 43.6667 -79.5667 47° Northeast 110 127 1,600  Level Toronto Center
Thu 06:35:36 AM 43.7000 -79.5167 47° Northeast 190 219 3,600 2,150 Climbing Toronto Center
Thu 06:36:36 AM 43.7333 -79.4333 61° Northeast 250 288 5,900 1,750 Climbing Toronto Center
Thu 06:37:36 AM 43.7167 -79.3500 105° East 260 299 7,100 1,650 Climbing Toronto Center
Thu 06:38:36 AM 43.6667 -79.2833 136° Southeast 270 311 9,200 2,250 Climbing Toronto Center
Thu 06:39:36 AM 43.6000 -79.2000 138° Southeast 280 322 11,600 2,150 Climbing Toronto Center
Thu 06:40:36 AM 43.5500 -79.1000 125° Southeast 330 380 13,500 2,150 Climbing Toronto Center
Thu 06:41:36 AM 43.4833 -78.9833 128° Southeast 350 403 15,900 2,250 Climbing Toronto Center
Thu 06:42:36 AM 43.4333 -78.8833 125° Southeast 370 426 18,000 1,800 Climbing Toronto Center
Thu 06:43:36 AM 43.3833 -78.7333 115° Southeast 390 449 19,500 1,500 Climbing Toronto Center
Thu 06:44:36 AM 43.3333 -78.6000 117° Southeast 410 472 21,000 1,700 Climbing Toronto Center
Thu 06:45:36 AM 43.2667 -78.4500 121° Southeast 430 495 22,900 1,750 Climbing Toronto Center
Thu 06:46:36 AM 43.2167 -78.2833 112° Southeast 440 506 24,500 1,385 Climbing Toronto Center
Thu 06:47:07 AM 43.2228 -78.2653 65° Northeast 438 504 25,000 1,304 Climbing Cleveland Center
Thu 06:48:08 AM 43.1597 -78.0775 115° Southeast 447 514 26,500 1,415 Climbing Cleveland Center
Thu 06:49:10 AM 43.1050 -77.9156 115° Southeast 462 532 27,900 1,268 Climbing Cleveland Center
Thu 06:50:11 AM 43.0494 -77.7519 115° Southeast 469 540 29,100 1,131 Climbing Cleveland Center
Thu 06:51:12 AM 42.9917 -77.5836 115° Southeast 479 551 30,200 927 Climbing Cleveland Center
Thu 06:52:14 AM 42.9339 -77.4142 115° Southeast 483 556 31,000 390 Climbing Cleveland Center
Thu 06:53:15 AM 42.8747 -77.2422 115° Southeast 491 565 31,000  Level Cleveland Center
Thu 06:54:17 AM 42.8161 -77.0717 115° Southeast 492 566 31,000  Level Cleveland Center
Thu 06:55:18 AM 42.7567 -76.9039 116° Southeast 492 566 31,000  Level Cleveland Center
Thu 06:56:17 AM 42.6975 -76.7367 116° Southeast 492 566 31,000  Level Boston Center
Thu 06:57:18 AM 42.6369 -76.5728 117° Southeast 489 563 31,000  Level Boston Center
Thu 06:58:19 AM 42.5672 -76.4194 122° Southeast 481 554 31,000  Level Boston Center
Thu 06:59:20 AM 42.4972 -76.2656 122° Southeast 480 552 31,000  Level Boston Center
Thu 07:00:21 AM 42.4172 -76.0892 122° Southeast 480 552 31,000  Level Boston Center
Thu 07:01:22 AM 42.3464 -75.9347 122° Southeast 482 555 31,000  Level Boston Center
Thu 07:02:24 AM 42.2772 -75.7817 121° Southeast 482 555 31,000  Level Boston Center
Thu 07:03:25 AM 42.2058 -75.6261 122° Southeast 484 557 31,000  Level Boston Center
Thu 07:04:26 AM 42.1347 -75.4719 122° Southeast 484 557 31,000 -98 Level Boston Center
Thu 07:05:27 AM 42.0650 -75.3158 121° Southeast 484 557 30,800 -689 Descending Boston Center
Thu 07:06:28 AM 42.0164 -75.1353 110° East 513 590 29,600 -1,033 Descending Boston Center
Thu 07:07:29 AM 41.9692 -74.9539 109° East 515 593 28,700 -787 Descending Boston Center
Thu 07:08:30 AM 41.9242 -74.7811 109° East 496 571 28,000 -344 Descending Boston Center
Thu 07:09:31 AM 41.8778 -74.6064 110° East 494 568 28,000  Level Boston Center
Thu 07:10:32 AM 41.8247 -74.4119 110° East 503 579 28,000  Level Boston Center
Thu 07:11:33 AM 41.7833 -74.2561 110° East 498 573 28,000 -443 Level Boston Center
Thu 07:12:34 AM 41.7286 -74.0494 109° East 497 572 27,100 -1,426 Descending Boston Center
Thu 07:13:35 AM 41.6603 -73.9208 125° Southeast 449 517 25,100 -1,902 Descending Boston Center
Thu 07:14:37 AM 41.5619 -73.9144 177° South 376 433 23,200 -1,854 Descending Boston Center
Thu 07:15:38 AM 41.4800 -73.9842 213° Southwest 349 402 21,300 -1,574 Descending Boston Center
Thu 07:16:39 AM 41.4008 -74.0514 213° Southwest 345 397 20,000 -655 Descending Boston Center
Thu 07:17:37 AM 41.3322 -74.1392 224° Southwest 347 399 20,000  Level New York Center
Thu 07:18:37 AM 41.3000 -74.2453 248° West 335 386 20,000  Level New York Center
Thu 07:19:37 AM 41.2656 -74.3567 248° West 335 386 20,000  Level New York Center
Thu 07:20:37 AM 41.2350 -74.4681 250° West 335 386 20,000  Level New York Center
Thu 07:21:37 AM 41.2028 -74.5656 246° West 317 365 20,000  Level New York Center
Thu 07:22:37 AM 41.1722 -74.6714 249° West 312 359 20,000  Level New York Center
Thu 07:23:37 AM 41.1078 -74.7308 215° Southwest 286 329 20,000  Level New York Center
Thu 07:24:37 AM 41.0572 -74.6206 121° Southeast 198 228 20,000 -50 Level New York Center
Thu 07:25:37 AM 41.0175 -74.4975 113° Southeast 244 281 19,900 -500 Descending New York Center
Thu 07:26:37 AM 40.9800 -74.3633 110° East 318 366 19,000 -495 Descending New York Center
Thu 07:27:26 AM 40.9500 -74.2667 112° Southeast 351 404 19,000  Level New York TRACON
Thu 07:28:26 AM 40.9167 -74.1500 111° Southeast 355 409 19,000 -350 Level New York TRACON
Thu 07:29:26 AM 40.8833 -74.0333 111° Southeast 350 403 18,300 -895 Descending New York TRACON
Thu 07:30:20 AM 40.8500 -73.9167 111° Southeast 342 394 17,300 -1,579 Descending New York TRACON
Thu 07:31:20 AM 40.7833 -73.8333 137° Southeast 315 362 15,300 -1,895 Descending New York TRACON
Thu 07:32:14 AM 40.7333 -73.7500 128° Southeast 317 365 13,700 -1,842 Descending New York TRACON
Thu 07:33:14 AM 40.6833 -73.6833 135° Southeast 315 362 11,800 -1,947 Descending New York TRACON
Thu 07:34:08 AM 40.6000 -73.6833 180° South 304 350 10,000 -2,000 Descending New York TRACON
Thu 07:35:08 AM 40.5333 -73.7000 191° South 269 310 8,000 -1,895 Descending New York TRACON
Thu 07:36:02 AM 40.4667 -73.7167 191° South 258 297 6,400 -1,632 Descending New York TRACON
Thu 07:37:02 AM 40.4000 -73.7333 191° South 235 270 4,900 -1,516 Descending New York TRACON
Thu 07:37:37 AM 40.3703 -73.7322 178° South 241 277 4,000 -1,200 Descending New York Center
Thu 07:38:37 AM 40.3292 -73.7983 231° Southwest 209 241 3,000 -500 Descending New York Center
Thu 07:39:37 AM 40.3272 -73.8664 268° West 206 237 3,000  Level New York Center
Thu 07:40:37 AM 40.3464 -73.9272 292° West 184 212 3,000 -432 Level New York Center
Thu 07:41:56 AM 40.4000 -73.9333 355° North 164 189 2,000 -432 Descending New York TRACON
Thu 07:42:56 AM 40.4333 -73.9167 21° North 141 162 2,000  Level New York TRACON
Thu 07:43:50 AM 40.4667 -73.9000 21° North 145 167 2,000  Level New York TRACON
Thu 07:44:50 AM 40.5000 -73.8667 37° Northeast 144 166 2,000  Level New York TRACON
Thu 07:45:50 AM 40.5333 -73.8333 37° Northeast 135 155 2,000 -250 Level New York TRACON
Thu 07:46:50 AM 40.5667 -73.8167 21° North 126 145 1,500 -632 Descending New York TRACON
Thu 07:47:44 AM 40.6000 -73.8000 21° North 127 146 800 -778 Descending New York TRACON

Login

Don't have an account? Register now (free) for customized features, flight alerts, and more!